Location: Bouchavesnes-Bergen
(49.9859°N, 2.9203°E)
Time: 11:40:08
(UTC+00:00)

S3M - Pass Details

Date: 09 March 2021
Orbit: 950 x 1003 km, 83.0° (Epoch: 12 April)

Event Time Altitude Azimuth Distance (km) Brightness Sun altitude
Exits shadow 03:21:11 51° 169° (S) 1,189 4.2 -27.8°
Maximum altitude 03:22:49 77° 96° (E) 989 4.0 -27.6°
Drops below altitude 10° 03:29:01 10° 12° (NNE) 2,722 6.8 -26.7°
Sets 03:31:33 0° 11° (N) 3,681 7.5 -26.3°
